Location: Sternwarte auf dem Internationalen Platz Vogelsang IP
(50.5721°N, 6.4398°E)
Time: 01:24:43
(UTC+01:00)

Tiros 1 - All Passes

Search period start: 06 December 2025 00:00
Search period end: 16 December 2025 00:00
Orbit: 619 x 650 km, 48.4° (Epoch: 05 December)

Date Brightness Start Highest point End Pass type
(mag) Time Alt. Az. Time Alt. Az. Time Alt. Az.
06 Dec - 12:34:58 10° S 12:37:43 16° SE 12:40:27 10° ESE daylight
06 Dec - 14:14:25 10° SW 14:18:51 43° SSE 14:23:14 10° E daylight
06 Dec - 15:55:52 10° W 16:00:30 68° S 16:05:04 10° E daylight
06 Dec - 17:37:43 10° W 17:42:10 49° SSW 17:46:35 10° SE visible
06 Dec - 19:20:10 10° W 19:23:23 19° SW 19:26:35 10° S visible
07 Dec - 12:55:18 10° SSW 12:59:09 26° SSE 13:02:59 10° E daylight
07 Dec - 14:35:58 10° WSW 14:40:33 58° SSE 14:45:05 10° E daylight
07 Dec - 16:17:40 10° W 16:22:16 65° S 16:26:50 10° ESE daylight
07 Dec - 17:59:37 10° W 18:03:48 34° SSW 18:07:57 10° SE visible
07 Dec - 19:43:58 10° SW 19:44:43 10° SW 19:45:27 10° SW visible
08 Dec - 11:37:30 10° SSE 11:39:40 13° SE 11:41:50 10° ESE daylight
08 Dec - 13:16:22 10° SW 13:20:43 39° SSE 13:25:02 10° E daylight
08 Dec - 14:57:41 10° WSW 15:02:18 67° S 15:06:53 10° E daylight
08 Dec - 16:39:29 10° W 16:44:01 54° SSW 16:48:29 10° ESE daylight
08 Dec - 18:21:46 10° W 18:25:19 22° SW 18:28:50 10° SSE visible
09 Dec - 11:57:24 10° SSW 12:01:03 23° SE 12:04:40 10° E daylight
09 Dec - 13:37:49 10° WSW 13:42:22 54° SSE 13:46:54 10° E daylight
09 Dec - 15:19:28 10° W 15:24:05 67° S 15:28:40 10° ESE daylight
09 Dec - 17:01:23 10° W 17:05:40 39° SSW 17:09:56 10° SE visible
09 Dec - 18:44:40 10° WSW 18:46:41 13° SW 18:48:40 10° SSW visible
10 Dec - 10:40:26 10° SSE 10:41:37 11° SE 10:42:48 10° ESE daylight
10 Dec - 12:18:18 10° SW 12:22:33 35° SSE 12:26:47 10° E daylight
10 Dec - 13:59:28 10° WSW 14:04:07 65° S 14:08:42 10° E daylight
10 Dec - 15:41:16 10° W 15:45:50 58° SSW 15:50:21 10° ESE daylight
10 Dec - 17:23:25 10° W 17:27:13 25° SSW 17:30:59 10° SSE visible
11 Dec - 10:59:35 10° S 11:02:56 20° SE 11:06:17 10° E daylight
11 Dec - 12:39:39 10° WSW 12:44:11 50° SSE 12:48:41 10° E daylight
11 Dec - 14:21:14 10° W 14:25:53 68° S 14:30:29 10° E daylight
11 Dec - 16:03:07 10° W 16:07:31 43° SSW 16:11:53 10° SE daylight
11 Dec - 17:45:57 10° WSW 17:48:37 15° SW 17:51:16 10° S visible
12 Dec - 11:20:16 10° SSW 11:24:25 31° SSE 11:28:31 10° E daylight
12 Dec - 13:01:16 10° WSW 13:05:54 63° S 13:10:29 10° E daylight
12 Dec - 14:43:02 10° W 14:47:39 61° S 14:52:12 10° ESE daylight
12 Dec - 16:25:05 10° W 16:29:05 29° SSW 16:33:03 10° SSE daylight
13 Dec - 10:01:50 10° S 10:04:51 17° SE 10:07:50 10° E daylight
13 Dec - 11:41:31 10° SW 11:46:00 45° SSE 11:50:28 10° E daylight
13 Dec - 13:23:00 10° W 13:27:40 69° S 13:32:17 10° E daylight
13 Dec - 15:04:51 10° W 15:09:21 48° SSW 15:13:46 10° SE daylight
13 Dec - 16:47:24 10° W 16:50:32 18° SW 16:53:38 10° S daylight
14 Dec - 10:22:16 10° SSW 10:26:15 27° SSE 10:30:13 10° E daylight
14 Dec - 12:03:03 10° WSW 12:07:41 60° SSE 12:12:17 10° E daylight
14 Dec - 13:44:47 10° W 13:49:26 64° S 13:54:01 10° ESE daylight
14 Dec - 15:26:46 10° W 15:30:56 33° SSW 15:35:04 10° SE daylight
15 Dec - 09:04:14 10° S 09:06:44 14° SE 09:09:13 10° ESE daylight
15 Dec - 10:43:23 10° SW 10:47:48 41° SSE 10:52:12 10° E daylight
15 Dec - 12:24:45 10° WSW 12:29:26 68° S 12:34:04 10° E daylight
15 Dec - 14:06:36 10° W 14:11:09 52° SSW 14:15:39 10° ESE daylight
15 Dec - 15:48:55 10° W 15:52:24 21° SW 15:55:52 10° SSE daylight
